| time (UTC) | temp F | wind direction | speed knots | gust knots | rain 1hr in | rain 24hr in | rain mn in | humidity % | barometer mb |
| 20260505152909 | 53 | 100 | 4.3 | 10.4 | 0.00 | 0.00 | 0.00 | 59 | 1010.9 |
| 20260505152411 | 53 | 112 | 3.5 | 13.9 | 0.00 | 0.00 | 0.00 | 60 | 1010.8 |
| 20260505151407 | 53 | 150 | 5.2 | 14.8 | 0.00 | 0.00 | 0.00 | 60 | 1010.8 |
| 20260505150905 | 53 | 127 | 5.2 | 14.8 | 0.00 | 0.00 | 0.00 | 59 | 1010.8 |
| 20260505150408 | 54 | 159 | 4.3 | 11.3 | 0.00 | 0.00 | 0.00 | 59 | 1010.8 |
| 20260505140402 | 54 | 153 | 4.3 | 12.2 | 0.00 | 0.00 | 0.00 | 59 | 1010.4 |
| 20260505124853 | 56 | 140 | 2.6 | 8.7 | 0.00 | 0.00 | 0.00 | 66 | 1009.7 |
| 20260505124351 | 56 | 160 | 2.6 | 8.7 | 0.00 | 0.00 | 0.00 | 65 | 1009.7 |
| 20260505123850 | 56 | 178 | 1.7 | 7.0 | 0.00 | 0.00 | 0.00 | 65 | 1009.7 |
| 20260505123351 | 56 | 178 | 2.6 | 9.6 | 0.00 | 0.00 | 0.00 | 65 | 1009.5 |
| 20260505122849 | 56 | 169 | 2.6 | 9.6 | 0.00 | 0.00 | 0.00 | 65 | 1009.3 |
| 20260505122350 | 55 | 146 | 2.6 | 7.8 | 0.00 | 0.00 | 0.00 | 65 | 1009.3 |
| 20260505121351 | 56 | 148 | 2.6 | 7.8 | 0.00 | 0.00 | 0.00 | 65 | 1009.2 |
| 20260505120841 | 55 | 184 | 2.6 | 7.0 | 0.00 | 0.00 | 0.00 | 65 | 1009.3 |
| 20260505120339 | 56 | 177 | 2.6 | 7.0 | 0.00 | 0.00 | 0.00 | 66 | 1009.3 |
| 20260505115839 | 56 | 158 | 2.6 | 7.0 | 0.00 | 0.00 | 0.00 | 67 | 1009.4 |
| 20260505114839 | 56 | 192 | 1.7 | 6.1 | 0.00 | 0.00 | 0.00 | 68 | 1009.4 |
| 20260505114338 | 56 | 192 | 1.7 | 6.1 | 0.00 | 0.00 | 0.00 | 68 | 1009.4 |
| 20260505113839 | 56 | 158 | 0.9 | 4.3 | 0.00 | 0.00 | 0.00 | 67 | 1009.5 |
| 20260505112840 | 56 | 193 | 0.0 | 3.5 | 0.00 | 0.00 | 0.00 | 67 | 1009.5 |
| 20260505112339 | 56 | 193 | 0.0 | 3.5 | 0.00 | 0.00 | 0.00 | 67 | 1009.5 |
| 20260505111838 | 56 | 196 | 0.0 | 2.6 | 0.00 | 0.00 | 0.00 | 66 | 1009.5 |
| 20260505111338 | 56 | 193 | 0.0 | 2.6 | 0.00 | 0.00 | 0.00 | 66 | 1009.5 |
| 20260505110836 | 56 | 178 | 0.0 | 0.9 | 0.00 | 0.00 | 0.00 | 66 | 1009.5 |
| 20260505110335 | 56 | 178 | 0.0 | 1.7 | 0.00 | 0.00 | 0.00 | 66 | 1009.5 |
| 20260505101831 | 56 | 146 | 1.7 | 4.3 | 0.00 | 0.00 | 0.00 | 64 | 1009.5 |
| 20260505101332 | 57 | 168 | 0.9 | 4.3 | 0.00 | 0.00 | 0.00 | 64 | 1009.4 |
| 20260505100832 | 57 | 152 | 0.0 | 1.7 | 0.00 | 0.00 | 0.00 | 64 | 1009.4 |
| 20260505100331 | 57 | 148 | 0.0 | 1.7 | 0.00 | 0.00 | 0.00 | 64 | 1009.4 |
| 20260505095830 | 57 | 148 | 0.9 | 4.3 | 0.00 | 0.00 | 0.00 | 64 | 1009.4 |
| 20260505095336 | 57 | 148 | 0.9 | 4.3 | 0.00 | 0.00 | 0.00 | 64 | 1009.4 |
| 20260505094832 | 57 | 145 | 1.7 | 6.1 | 0.00 | 0.00 | 0.00 | 64 | 1009.5 |
| 20260505094328 | 57 | 140 | 1.7 | 6.1 | 0.00 | 0.00 | 0.00 | 64 | 1009.4 |
| 20260505093828 | 57 | 117 | 2.6 | 6.1 | 0.00 | 0.00 | 0.00 | 64 | 1009.3 |
| 20260505093330 | 57 | 197 | 2.6 | 6.1 | 0.00 | 0.00 | 0.00 | 64 | 1009.4 |
| 20260505092828 | 57 | 173 | 2.6 | 6.1 | 0.00 | 0.00 | 0.00 | 63 | 1009.4 |
| 20260505091825 | 57 | 155 | 2.6 | 7.8 | 0.00 | 0.00 | 0.00 | 63 | 1009.4 |
| 20260505091325 | 56 | 140 | 2.6 | 7.8 | 0.00 | 0.00 | 0.00 | 64 | 1009.3 |
| 20260505090824 | 56 | 158 | 1.7 | 4.3 | 0.00 | 0.00 | 0.00 | 64 | 1009.4 |
| 20260505090324 | 56 | 175 | 1.7 | 5.2 | 0.00 | 0.00 | 0.00 | 64 | 1009.5 |
| 20260505085824 | 56 | 140 | 1.7 | 5.2 | 0.00 | 0.00 | 0.00 | 64 | 1009.4 |
| 20260505085324 | 56 | 124 | 1.7 | 5.2 | 0.00 | 0.00 | 0.00 | 64 | 1009.5 |
| 20260505084323 | 56 | 140 | 1.7 | 5.2 | 0.00 | 0.00 | 0.00 | 64 | 1009.5 |
| 20260505082819 | 57 | 202 | 0.0 | 3.5 | 0.00 | 0.00 | 0.00 | 64 | 1009.7 |
| 20260505081313 | 57 | 173 | 0.9 | 5.2 | 0.00 | 0.00 | 0.00 | 63 | 1010.0 |
| 20260505080314 | 57 | 138 | 0.9 | 6.1 | 0.00 | 0.00 | 0.00 | 62 | 1009.9 |
| 20260505074811 | 57 | 163 | 3.5 | 8.7 | 0.00 | 0.00 | 0.00 | 61 | 1009.9 |
| 20260505074307 | 57 | 140 | 3.5 | 8.7 | 0.00 | 0.00 | 0.00 | 60 | 1009.9 |
| 20260505073806 | 57 | 196 | 3.5 | 9.6 | 0.00 | 0.00 | 0.00 | 60 | 1010.0 |
| 20260505072805 | 57 | 150 | 3.5 | 7.8 | 0.00 | 0.00 | 0.00 | 60 | 1009.9 |
| 20260505072307 | 57 | 165 | 3.5 | 12.2 | 0.00 | 0.00 | 0.00 | 59 | 1010.0 |
| 20260505071805 | 57 | 167 | 3.5 | 12.2 | 0.00 | 0.00 | 0.00 | 59 | 1009.9 |
| 20260505071304 | 57 | 148 | 4.3 | 9.6 | 0.00 | 0.00 | 0.00 | 58 | 1009.9 |
| 20260505070804 | 57 | 133 | 4.3 | 10.4 | 0.00 | 0.00 | 0.00 | 57 | 1009.9 |
| 20260505070304 | 57 | 176 | 4.3 | 10.4 | 0.00 | 0.00 | 0.00 | 56 | 1009.9 |
| 20260505065802 | 57 | 143 | 4.3 | 10.4 | 0.00 | 0.00 | 0.00 | 56 | 1009.9 |
| 20260505065304 | 57 | 204 | 4.3 | 10.4 | 0.00 | 0.00 | 0.00 | 56 | 1010.0 |
| 20260505064804 | 57 | 190 | 4.3 | 9.6 | 0.00 | 0.00 | 0.00 | 56 | 1010.0 |
| 20260505064302 | 57 | 163 | 5.2 | 14.8 | 0.00 | 0.00 | 0.00 | 57 | 1010.0 |
| 20260505063801 | 57 | 153 | 5.2 | 14.8 | 0.00 | 0.00 | 0.00 | 57 | 1010.0 |
| 20260505063300 | 57 | 140 | 5.2 | 12.2 | 0.00 | 0.00 | 0.00 | 57 | 1010.0 |
| 20260505062802 | 57 | 101 | 3.5 | 9.6 | 0.00 | 0.00 | 0.00 | 58 | 1009.9 |
| 20260505062300 | 57 | 226 | 3.5 | 9.6 | 0.00 | 0.00 | 0.00 | 58 | 1010.0 |
| 20260505061801 | 57 | 96 | 4.3 | 10.4 | 0.00 | 0.00 | 0.00 | 59 | 1010.0 |
| 20260505061258 | 57 | 136 | 4.3 | 10.4 | 0.00 | 0.00 | 0.00 | 59 | 1010.1 |
| 20260505060758 | 57 | 115 | 3.5 | 10.4 | 0.00 | 0.00 | 0.00 | 59 | 1010.2 |
| 20260505060254 | 57 | 146 | 4.3 | 10.4 | 0.00 | 0.00 | 0.00 | 59 | 1010.0 |
| 20260505055753 | 57 | 208 | 4.3 | 12.2 | 0.00 | 0.00 | 0.00 | 59 | 1010.1 |
| 20260505054753 | 58 | 130 | 3.5 | 12.2 | 0.00 | 0.00 | 0.00 | 59 | 1010.1 |
| 20260505054253 | 58 | 185 | 5.2 | 12.2 | 0.00 | 0.00 | 0.00 | 59 | 1010.1 |
| 20260505053753 | 58 | 134 | 5.2 | 12.2 | 0.00 | 0.00 | 0.00 | 59 | 1010.1 |
| 20260505052744 | 58 | 138 | 5.2 | 16.5 | 0.00 | 0.00 | 0.00 | 59 | 1010.0 |
| 20260505051744 | 58 | 178 | 6.1 | 13.0 | 0.00 | 0.00 | 0.00 | 59 | 1009.9 |
| 20260505050742 | 59 | 139 | 6.1 | 13.9 | 0.00 | 0.00 | 0.00 | 58 | 1009.7 |
| 20260505050245 | 60 | 137 | 6.1 | 13.9 | 0.00 | 0.00 | 0.00 | 56 | 1009.7 |
| 20260505041738 | 62 | 127 | 3.5 | 13.0 | 0.00 | 0.00 | 0.00 | 44 | 1008.6 |
| 20260505041239 | 62 | 200 | 3.5 | 9.6 | 0.00 | 0.00 | 0.00 | 45 | 1008.7 |
| 20260505040739 | 62 | 82 | 2.6 | 9.6 | 0.00 | 0.00 | 0.00 | 44 | 1008.6 |
| 20260505040238 | 63 | 153 | 2.6 | 7.0 | 0.00 | 0.00 | 0.00 | 43 | 1008.6 |
| 20260505035742 | 63 | 119 | 2.6 | 7.0 | 0.00 | 0.00 | 0.00 | 43 | 1008.6 |
| 20260505035239 | 63 | 182 | 2.6 | 7.0 | 0.00 | 0.00 | 0.00 | 44 | 1008.5 |
| 20260505034738 | 63 | 155 | 2.6 | 7.0 | 0.00 | 0.00 | 0.00 | 44 | 1008.4 |
| 20260505034238 | 63 | 186 | 1.7 | 6.1 | 0.00 | 0.00 | 0.00 | 45 | 1008.3 |
| 20260505033244 | 64 | 180 | 2.6 | 9.6 | 0.00 | 0.00 | 0.00 | 46 | 1008.1 |
| 20260505032240 | 64 | 175 | 3.5 | 9.6 | 0.00 | 0.00 | 0.00 | 43 | 1008.0 |
| 20260505031240 | 64 | 153 | 2.6 | 7.8 | 0.00 | 0.00 | 0.00 | 43 | 1008.0 |
| 20260505030738 | 65 | 157 | 2.6 | 9.6 | 0.00 | 0.00 | 0.00 | 42 | 1008.0 |
| 20260505030237 | 65 | 201 | 2.6 | 9.6 | 0.00 | 0.00 | 0.00 | 42 | 1007.9 |
| 20260505025735 | 65 | 159 | 2.6 | 8.7 | 0.00 | 0.00 | 0.00 | 42 | 1007.9 |
| 20260505025232 | 65 | 164 | 3.5 | 8.7 | 0.00 | 0.00 | 0.00 | 42 | 1007.8 |
| 20260505024233 | 65 | 192 | 2.6 | 7.8 | 0.00 | 0.00 | 0.00 | 42 | 1007.7 |
| 20260505023733 | 66 | 167 | 2.6 | 7.8 | 0.00 | 0.00 | 0.00 | 42 | 1007.6 |
| 20260505022732 | 66 | 175 | 3.5 | 10.4 | 0.00 | 0.00 | 0.00 | 40 | 1007.6 |
| 20260505021732 | 66 | 132 | 3.5 | 7.8 | 0.00 | 0.00 | 0.00 | 38 | 1007.5 |
| 20260505021231 | 67 | 211 | 2.6 | 7.8 | 0.00 | 0.00 | 0.00 | 38 | 1007.3 |
| 20260505020726 | 67 | 165 | 2.6 | 11.3 | 0.00 | 0.00 | 0.00 | 38 | 1007.3 |
| 20260505015729 | 67 | 194 | 3.5 | 11.3 | 0.00 | 0.00 | 0.00 | 37 | 1007.5 |
| 20260505015222 | 68 | 137 | 3.5 | 11.3 | 0.00 | 0.00 | 0.00 | 37 | 1007.5 |
| 20260505014724 | 68 | 198 | 3.5 | 13.9 | 0.00 | 0.00 | 0.00 | 37 | 1007.5 |
| 20260505014220 | 69 | 145 | 3.5 | 13.9 | 0.00 | 0.00 | 0.00 | 36 | 1007.5 |
| 20260505013221 | 69 | 155 | 0.9 | 2.6 | 0.00 | 0.00 | 0.00 | 32 | 1007.3 |
| 20260505012720 | 69 | 157 | 0.9 | 5.2 | 0.00 | 0.00 | 0.00 | 34 | 1007.3 |
| 20260505012218 | 70 | 178 | 0.9 | 5.2 | 0.00 | 0.00 | 0.00 | 33 | 1007.5 |
| 20260505011715 | 70 | 142 | 0.9 | 2.6 | 0.00 | 0.00 | 0.00 | 33 | 1007.5 |
| 20260505011214 | 70 | 142 | 0.9 | 2.6 | 0.00 | 0.00 | 0.00 | 32 | 1007.5 |
| 20260505010217 | 70 | 142 | 0.9 | 3.5 | 0.00 | 0.00 | 0.00 | 34 | 1007.6 |
| 20260505005714 | 70 | 140 | 1.7 | 4.3 | 0.00 | 0.00 | 0.00 | 34 | 1007.5 |
| 20260505005212 | 70 | 157 | 0.9 | 4.3 | 0.00 | 0.00 | 0.00 | 34 | 1007.6 |
| 20260505003711 | 69 | 127 | 0.9 | 2.6 | 0.00 | 0.00 | 0.00 | 36 | 1007.6 |
| 20260505003213 | 69 | 127 | 0.9 | 2.6 | 0.00 | 0.00 | 0.00 | 34 | 1007.6 |
| 20260505002710 | 69 | 127 | 0.9 | 3.5 | 0.00 | 0.00 | 0.00 | 35 | 1007.6 |
| 20260505002208 | 69 | 127 | 0.9 | 3.5 | 0.00 | 0.00 | 0.00 | 34 | 1007.7 |
| 20260505001709 | 69 | 95 | 0.9 | 3.5 | 0.00 | 0.00 | 0.00 | 34 | 1007.7 |
| 20260505000706 | 69 | 61 | 1.7 | 4.3 | 0.00 | 0.00 | 0.00 | 33 | 1007.7 |
| 20260504235712 | 69 | 49 | 1.7 | 7.0 | 0.00 | 0.00 | 0.00 | 35 | 1007.8 |
| 20260504235208 | 69 | 59 | 1.7 | 7.0 | 0.00 | 0.00 | 0.00 | 34 | 1007.9 |
| 20260504234710 | 69 | 77 | 0.9 | 3.5 | 0.00 | 0.00 | 0.00 | 34 | 1008.0 |
| 20260504234208 | 69 | 89 | 0.9 | 5.2 | 0.00 | 0.00 | 0.00 | 34 | 1008.1 |
| 20260504233206 | 70 | 104 | 1.7 | 5.2 | 0.00 | 0.00 | 0.00 | 35 | 1008.4 |
| 20260504232704 | 70 | 119 | 1.7 | 5.2 | 0.00 | 0.00 | 0.00 | 34 | 1008.4 |
| 20260504232205 | 70 | 99 | 1.7 | 7.0 | 0.00 | 0.00 | 0.00 | 35 | 1008.4 |
| 20260504231704 | 70 | 21 | 2.6 | 7.0 | 0.00 | 0.00 | 0.00 | 34 | 1008.3 |
| 20260504231203 | 71 | 120 | 3.5 | 7.8 | 0.00 | 0.00 | 0.00 | 34 | 1008.3 |
| 20260504230201 | 71 | 85 | 2.6 | 7.0 | 0.00 | 0.00 | 0.00 | 33 | 1008.1 |
| 20260504225652 | 71 | 62 | 2.6 | 10.4 | 0.00 | 0.00 | 0.00 | 32 | 1008.1 |
| 20260504225154 | 71 | 46 | 3.5 | 10.4 | 0.00 | 0.00 | 0.00 | 33 | 1008.4 |
| 20260504224151 | 72 | 49 | 3.5 | 9.6 | 0.00 | 0.00 | 0.00 | 32 | 1008.1 |
| 20260504223652 | 73 | 90 | 2.6 | 8.7 | 0.00 | 0.00 | 0.00 | 31 | 1008.3 |
| 20260504223151 | 73 | 105 | 2.6 | 8.7 | 0.00 | 0.00 | 0.00 | 30 | 1008.1 |
| 20260504222149 | 74 | 107 | 1.7 | 10.4 | 0.00 | 0.00 | 0.00 | 32 | 1008.3 |
| 20260504221649 | 74 | 279 | 0.9 | 2.6 | 0.00 | 0.00 | 0.00 | 31 | 1008.4 |
| 20260504221146 | 73 | 267 | 1.7 | 3.5 | 0.00 | 0.00 | 0.00 | 34 | 1008.1 |
| 20260504220646 | 73 | 236 | 1.7 | 3.5 | 0.00 | 0.00 | 0.00 | 31 | 1008.1 |
| 20260504220143 | 72 | 249 | 0.9 | 2.6 | 0.00 | 0.00 | 0.00 | 34 | 1008.3 |
| 20260504215643 | 71 | 242 | 0.9 | 6.1 | 0.00 | 0.00 | 0.00 | 38 | 1008.4 |
| 20260504215144 | 70 | 241 | 1.7 | 6.1 | 0.00 | 0.00 | 0.00 | 34 | 1008.3 |
| 20260504214643 | 70 | 150 | 1.7 | 5.2 | 0.00 | 0.00 | 0.00 | 33 | 1008.5 |
| 20260504214150 | 69 | 227 | 1.7 | 5.2 | 0.00 | 0.00 | 0.00 | 35 | 1008.5 |
| 20260504213645 | 69 | 222 | 0.9 | 4.3 | 0.00 | 0.00 | 0.00 | 36 | 1008.7 |
| 20260504213142 | 69 | 195 | 1.7 | 7.0 | 0.00 | 0.00 | 0.00 | 36 | 1008.7 |
| 20260504212642 | 69 | 276 | 1.7 | 7.0 | 0.00 | 0.00 | 0.00 | 36 | 1008.7 |
| 20260504212140 | 70 | 175 | 1.7 | 4.3 | 0.00 | 0.00 | 0.00 | 36 | 1008.7 |
| 20260504211640 | 71 | 223 | 1.7 | 4.3 | 0.00 | 0.00 | 0.00 | 36 | 1008.7 |
| 20260504210641 | 72 | 271 | 1.7 | 5.2 | 0.00 | 0.00 | 0.00 | 31 | 1008.6 |
| 20260504210138 | 72 | 281 | 1.7 | 5.2 | 0.00 | 0.00 | 0.00 | 30 | 1008.6 |
| 20260504205638 | 72 | 277 | 1.7 | 5.2 | 0.00 | 0.00 | 0.00 | 32 | 1008.6 |
| 20260504205137 | 73 | 212 | 1.7 | 3.5 | 0.00 | 0.00 | 0.00 | 32 | 1008.6 |
| 20260504204636 | 73 | 267 | 1.7 | 3.5 | 0.00 | 0.00 | 0.00 | 33 | 1008.6 |
| 20260504204136 | 73 | 284 | 0.9 | 3.5 | 0.00 | 0.00 | 0.00 | 33 | 1008.6 |
| 20260504203135 | 73 | 206 | 0.9 | 2.6 | 0.00 | 0.00 | 0.00 | 29 | 1008.7 |
| 20260504202634 | 73 | 173 | 0.0 | 2.6 | 0.00 | 0.00 | 0.00 | 33 | 1008.6 |
| 20260504202132 | 73 | 161 | 0.0 | 1.7 | 0.00 | 0.00 | 0.00 | 31 | 1008.6 |
| 20260504201633 | 73 | 161 | 0.0 | 1.7 | 0.00 | 0.00 | 0.00 | 30 | 1008.6 |
| 20260504201132 | 73 | 161 | 0.9 | 3.5 | 0.00 | 0.00 | 0.00 | 33 | 1008.7 |
| 20260504200632 | 73 | 161 | 0.9 | 4.3 | 0.00 | 0.00 | 0.00 | 32 | 1008.7 |
| 20260504200132 | 73 | 155 | 0.9 | 4.3 | 0.00 | 0.00 | 0.00 | 33 | 1008.7 |
| 20260504195633 | 72 | 153 | 1.7 | 6.1 | 0.00 | 0.00 | 0.00 | 32 | 1008.9 |
| 20260504195134 | 72 | 154 | 0.9 | 6.1 | 0.00 | 0.00 | 0.00 | 33 | 1008.8 |
| 20260504194632 | 72 | 114 | 0.9 | 5.2 | 0.00 | 0.00 | 0.00 | 30 | 1008.8 |
| 20260504194133 | 72 | 158 | 0.9 | 4.3 | 0.00 | 0.00 | 0.00 | 32 | 1008.9 |
| 20260504193631 | 72 | 180 | 1.7 | 5.2 | 0.00 | 0.00 | 0.00 | 30 | 1008.9 |
| 20260504193130 | 72 | 203 | 1.7 | 7.0 | 0.00 | 0.00 | 0.00 | 32 | 1009.1 |
| 20260504192628 | 72 | 136 | 0.9 | 7.0 | 0.00 | 0.00 | 0.00 | 30 | 1009.1 |
| 20260504192129 | 72 | 175 | 0.9 | 5.2 | 0.00 | 0.00 | 0.00 | 33 | 1009.1 |
| 20260504191626 | 73 | 172 | 1.7 | 6.1 | 0.00 | 0.00 | 0.00 | 31 | 1009.1 |
| 20260504190625 | 74 | 148 | 1.7 | 5.2 | 0.00 | 0.00 | 0.00 | 32 | 1009.2 |
| 20260504190125 | 74 | 173 | 2.6 | 7.0 | 0.00 | 0.00 | 0.00 | 31 | 1009.3 |
| 20260504185121 | 75 | 96 | 2.6 | 7.0 | 0.00 | 0.00 | 0.00 | 28 | 1009.5 |
| 20260504184620 | 75 | 111 | 2.6 | 7.0 | 0.00 | 0.00 | 0.00 | 28 | 1009.6 |
| 20260504184116 | 74 | 163 | 2.6 | 7.0 | 0.00 | 0.00 | 0.00 | 31 | 1009.6 |
| 20260504183607 | 74 | 131 | 3.5 | 7.8 | 0.00 | 0.00 | 0.00 | 29 | 1009.7 |
| 20260504183106 | 74 | 106 | 3.5 | 7.8 | 0.00 | 0.00 | 0.00 | 31 | 1009.7 |
| 20260504182105 | 72 | 153 | 3.5 | 7.8 | 0.00 | 0.00 | 0.00 | 33 | 1010.0 |
| 20260504181606 | 71 | 163 | 3.5 | 8.7 | 0.00 | 0.00 | 0.00 | 33 | 1010.0 |
| 20260504181102 | 72 | 113 | 3.5 | 8.7 | 0.00 | 0.00 | 0.00 | 34 | 1010.1 |
| 20260504180604 | 72 | 121 | 3.5 | 7.8 | 0.00 | 0.00 | 0.00 | 33 | 1010.1 |
| 20260504180103 | 73 | 188 | 3.5 | 8.7 | 0.00 | 0.00 | 0.00 | 32 | 1010.2 |
| 20260504175604 | 73 | 119 | 3.5 | 9.6 | 0.00 | 0.00 | 0.00 | 32 | 1010.2 |
| 20260504175103 | 73 | 219 | 4.3 | 9.6 | 0.00 | 0.00 | 0.00 | 35 | 1010.2 |
| 20260504174601 | 73 | 189 | 3.5 | 9.6 | 0.00 | 0.00 | 0.00 | 32 | 1010.2 |
| 20260504174101 | 73 | 221 | 3.5 | 9.6 | 0.00 | 0.00 | 0.00 | 34 | 1010.2 |
| 20260504173559 | 73 | 180 | 3.5 | 8.7 | 0.00 | 0.00 | 0.00 | 33 | 1010.3 |
| 20260504173101 | 72 | 140 | 4.3 | 8.7 | 0.00 | 0.00 | 0.00 | 33 | 1010.2 |
| 20260504172554 | 73 | 242 | 4.3 | 8.7 | 0.00 | 0.00 | 0.00 | 32 | 1010.3 |
| 20260504172047 | 73 | 163 | 4.3 | 10.4 | 0.00 | 0.00 | 0.00 | 33 | 1010.3 |
| 20260504171548 | 72 | 155 | 4.3 | 10.4 | 0.00 | 0.00 | 0.00 | 34 | 1010.5 |
| 20260504171047 | 72 | 176 | 4.3 | 9.6 | 0.00 | 0.00 | 0.00 | 33 | 1010.4 |
| 20260504170547 | 72 | 167 | 4.3 | 9.6 | 0.00 | 0.00 | 0.00 | 33 | 1010.5 |